This is the latest recevied weather packets stored in our database for station/object WW3TRG. If no packets are shown the sender has not sent any weather packets the latest 10 day(s).
| Time | Temp. | Humidity | Pressure | Rain* | Wind** | Luminosity | Snow |
|---|---|---|---|---|---|---|---|
| 1777875094 | 2.78° C | 93% | 1013.1 hPa | 0 mm | - | 0 W/m² | - |
| 1777874791 | 2.78° C | 93% | 1013.1 hPa | 0 mm | - | 0 W/m² | - |
| 1777874486 | 2.78° C | 93% | 1013.1 hPa | 0 mm | - | 0 W/m² | - |
| 1777874184 | 2.78° C | 93% | 1013.1 hPa | 0 mm | - | 0 W/m² | - |
| 1777873881 | 2.78° C | 92% | 1012.9 hPa | 0 mm | - | 0 W/m² | - |
| 1777873578 | 3.33° C | 92% | 1013 hPa | 0 mm | - | 0 W/m² | - |
| 1777873275 | 3.33° C | 92% | 1012.9 hPa | 0 mm | - | 0 W/m² | - |
| 1777872972 | 3.33° C | 91% | 1013.1 hPa | 0 mm | - | 0 W/m² | - |
| 1777872669 | 3.89° C | 91% | 1013.1 hPa | 0 mm | - | 0 W/m² | - |
| 1777872366 | 3.33° C | 90% | 1013.1 hPa | 0 mm | - | 0 W/m² | - |
| 1777872064 | 3.89° C | 89% | 1013 hPa | 0 mm | - | 0 W/m² | - |
| 1777871761 | 3.89° C | 88% | 1013 hPa | 0 mm | - | 0 W/m² | - |
| 1777871457 | 3.89° C | 88% | 1012.9 hPa | 0 mm | - | 0 W/m² | - |
| 1777871154 | 4.44° C | 88% | 1012.7 hPa | 0 mm | - | 0 W/m² | - |
| 1777870851 | 5° C | 87% | 1013 hPa | 0 mm | - | 0 W/m² | - |
| 1777870548 | 5° C | 87% | 1012.9 hPa | 0 mm | - | 0 W/m² | - |
| 1777870243 | 5° C | 87% | 1012.8 hPa | 0 mm | - | 0 W/m² | - |
| 1777869941 | 5° C | 86% | 1013 hPa | 0 mm | - | 0 W/m² | - |
| 1777869638 | 5.56° C | 84% | 1013 hPa | 0 mm | - | 0 W/m² | - |
| 1777869335 | 5.56° C | 81% | 1013.1 hPa | 0 mm | - | 0 W/m² | - |
| 1777869032 | 6.11° C | 79% | 1012.9 hPa | 0 mm | - | 0 W/m² | - |
| 1777868729 | 6.11° C | 78% | 1012.7 hPa | 0 mm | - | 0 W/m² | - |
| 1777868426 | 6.11° C | 79% | 1012.7 hPa | 0 mm | - | 0 W/m² | - |
| 1777868122 | 6.11° C | 79% | 1012.8 hPa | 0 mm | - | 0 W/m² | - |
| 1777867818 | 6.11° C | 80% | 1012.7 hPa | 0 mm | - | 0 W/m² | - |
* Rain latest hour (hover to see other rain measurements)
** Current wind speed in m/s (hover to see current wind gust speed)